User: anonymous   Login
Location: Pine Mountain Observatory
(43.7910°N, 120.9377°W)
Time: 03:20:57
(UTC-08:00)
Language:

Cosmos 1867 - Orbit

View from above orbital plane
View from above orbital plane
View from above satellite
View from above satellite

Ground track
Ground track

The orbit data is extracted from the following two-line orbital elements,

1 18187U 87060A   14354.00882416  .00000016  00000-0  44058-4 0  2526
2 18187 065.0110 255.9554 0013587 272.1445 087.8084 14.31040079433750
Epoch (UTC): 20 December 2014 00:12:42
Eccentricity: 0.0013587
inclination: 65.0110°
perigee height: 778 km
apogee height: 798 km
right ascension of ascending node: 255.9554°
argument of perigee: 272.1445°
revolutions per day: 14.31040079
mean anomaly at epoch: 87.8084°
orbit number at epoch: 43375

The dashed part of the orbit path shows where the satellite is in the earth's shadow,  

DLR